Location: Sternwarte Hubelmatt
(47.0367°N, 8.3053°E)
Time: 12:48:53
(UTC+02:00)

ISS - Pass Details

Date: 01 October 2022
Orbit: 414 x 417 km, 51.6° (Epoch: 01 October)

Event Time Altitude Azimuth Distance (km) Brightness Sun altitude
Rises 20:29:12 0° 294° (WNW) 2,361 1.7 -14.8°
Reaches altitude 10° 20:31:19 10° 291° (WNW) 1,495 0.4 -15.2°
Maximum altitude 20:34:38 60° 211° (SSW) 483 -3.4 -15.7°
Enters shadow 20:35:58 31° 143° (SE) 749 -2.9 -16.0°
